Retour au catalogue

CZ-4 DEB

ActifSSO
NORAD 28071·DEBRIS·🇨🇳 China

Lancé Oct 14, 1999 depuis Taiyuan Satellite Launch Center

Loading…

Prochains Passages (prochaines 24 heures)

TLE

VieillissantSource: Space-Track

Époque: Sep 10, 2026, 01:40 UTC

1 28071U 99057NB  26253.06986206  .00000113  00000-0  52907-4 0  9995
2 28071  98.6147 184.2266 0106578   1.1194  63.3126 14.34510091258731

Suivez CZ-4 DEB en temps réel avec AllMySat

Download on the App Store